Voltar ao catálogo

HULIANWANG DIGUI-13

AtivoComunicaçõesLEO
NORAD 62973·PAYLOAD·🇨🇳 China

Lançado Feb 11, 2025 de Wenchang Space Launch Site

Loading…

Próximas Passagens (próximas 24 horas)

TLE

AtualizadoSource: Space-Track

Época: Sep 14, 2026, 12:57 UTC

1 62973U 25030C   26257.54015817 -.00000093  00000-0  66418-4 0  9992
2 62973  50.0019 275.3470 0000363  19.4596 340.6290 13.29326617 77747

Acompanhe HULIANWANG DIGUI-13 em tempo real com AllMySat

Download on the App Store